Tracking 32140 objects as of 13-Nov-2025
HD Live streaming from Space Station
objects crossing your sky now

ST5-A

Track ST5-A now!
10-day predictions
ST5-A is classified as:


NORAD ID: 28980
Int'l Code: 2006-008A
Perigee: 305.0 km
Apogee: 2,975.5 km
Inclination: 105.5 °
Period: 118.9 minutes
Semi major axis: 8011 km
RCS: 0.3025 m2 (medium)
Launch date: March 22, 2006
Source: United States (US)
Launch site: Pegasus launched from Western Range Air Space (WRAS)
Your satellite tracking list
Your tracking list is empty




NASA's NSSDC Master Catalog

Two Line Element Set (TLE):
1 28980U 06008A   25317.31441101  .00031655  33989-5  11935-2 0  9992
2 28980 105.5001 280.5396 1666735 267.7208  73.2944 12.10744979796454
Source of the keplerian elements: AFSPC